ISS (ZARYA) 1 25544U 98067A 26170.06007799 .00009022 00000+0 16988-3 0 9991 2 25544 51.6331 290.8234 0004653 203.3119 156.7659 15.49309015572040 POISK 1 36086U 09060A 26170.06007799 .00009022 00000+0 16988-3 0 9999 2 36086 51.6331 290.8234 0004653 203.3119 156.7659 15.49309015571727 CSS (TIANHE) 1 48274U 21035A 26169.83259121 .00017666 00000+0 20869-3 0 9994 2 48274 41.4697 311.9880 0007367 91.6871 268.4812 15.60871130293426 ISS (NAUKA) 1 49044U 21066A 26170.06007799 .00009022 00000+0 16988-3 0 9997 2 49044 51.6331 290.8234 0004653 203.3119 156.7659 15.49309015571770 FREGAT DEB 1 49271U 11037PF 26169.81914094 .00008272 00000+0 14121-1 0 9993 2 49271 51.6464 357.0101 0902414 285.8164 64.5091 12.42157697225257 CSS (WENTIAN) 1 53239U 22085A 26169.83259121 .00017666 00000+0 20869-3 0 9997 2 53239 41.4697 311.9880 0007367 91.6871 268.4812 15.60871130288236 CSS (MENGTIAN) 1 54216U 22143A 26169.83259121 .00017666 00000+0 20869-3 0 9998 2 54216 41.4697 311.9880 0007367 91.6871 268.4812 15.60871130293913 HRC MONOBLOCK CAMERA 1 66052U 98067XR 26168.51893428 .00065438 00000+0 44952-3 0 9994 2 66052 51.6246 277.4696 0001644 299.3044 60.7791 15.74052121 38056 SZ-21 MODULE 1 66515U 25246C 26170.05293390 .00035855 00000+0 21962-3 0 9997 2 66515 41.4731 295.7049 0006021 3.7738 356.3151 15.76542094 34035 SOYUZ-MS 28 1 66664U 25275A 26170.06007799 .00009022 00000+0 16988-3 0 9990 2 66664 51.6331 290.8234 0004653 203.3119 156.7659 15.49309015571878 DUPLEX 1 66906U 98067XS 26169.33137683 .00031850 00000+0 35301-3 0 9996 2 66906 51.6285 283.6948 0003192 213.2137 146.8657 15.62664409 30834 ISS OBJECT XY 1 66912U 98067XY 26169.97512394 .00489003 11540-3 90324-3 0 9997 2 66912 51.6162 264.5489 0011718 331.6534 28.3837 16.00463415 31137 KNACKSAT-2 1 67683U 98067XZ 26168.60673955 .00040994 00000+0 49993-3 0 9996 2 67683 51.6314 292.3670 0009088 217.1010 142.9356 15.60014370 20344 CORAL 1 67684U 98067YA 26169.59105803 .00172169 00000+0 10137-2 0 9995 2 67684 51.6227 280.8898 0008687 265.5382 94.4626 15.77110492 20582 GXIBA-1 1 67685U 98067YB 26170.01636397 .00043345 00000+0 49384-3 0 9992 2 67685 51.6281 284.5249 0010030 221.7860 138.2369 15.61751297 20571 UITMSAT-2 1 67686U 98067YC 26170.02427666 .00066922 00000+0 66532-3 0 9991 2 67686 51.6268 283.0759 0005309 217.2387 142.8241 15.65086599 20596 LEOPARD 1 67687U 98067YD 26170.04296802 .00042678 00000+0 49865-3 0 9992 2 67687 51.6308 284.7190 0005851 204.9640 155.1071 15.61143618 20495 HMU-SAT2 1 67688U 98067YE 26168.60948560 .00057682 00000+0 61556-3 0 9999 2 67688 51.6297 290.8881 0005760 204.4350 155.6373 15.63349670 20285 CREW DRAGON 12 1 67796U 26031A 26170.06007799 .00009022 00000+0 16988-3 0 9998 2 67796 51.6331 290.8234 0004653 203.3119 156.7659 15.49309015571820 PROGRESS-MS 33 1 68319U 26058A 26170.06007799 .00009022 00000+0 16988-3 0 9999 2 68319 51.6331 290.8234 0004653 203.3119 156.7659 15.49309015571923 CYGNUS NG-24 1 68689U 26079A 26169.80206886 .00008155 00000+0 15439-3 0 9996 2 68689 51.6331 292.1003 0004666 202.2920 157.7867 15.49302471571936 PROGRESS-MS 34 1 68837U 26093A 26169.80206886 .00008155 00000+0 15439-3 0 9997 2 68837 51.6331 292.1003 0004666 202.2920 157.7867 15.49302471571986 TIANZHOU-10 1 69049U 26102A 26169.83259121 .00017666 00000+0 20869-3 0 9997 2 69049 41.4697 311.9880 0007367 91.6871 268.4812 15.60871130 6106 SHENZHOU-23 (SZ-23) 1 69180U 26113A 26169.83259121 .00017666 00000+0 20869-3 0 9995 2 69180 41.4697 311.9880 0007367 91.6871 268.4812 15.60871130293649